EHI
4 4 4 5 9 14 16 17 21 20 16 13 12 12 13 15 16 18 21 18 14 15 16 14 14 14 15 14 11 7 4 4 4 4 4 3 3 4 4 3 1 0 0
4 5 4 5 9 14 16 17 19 18 15 12 11 12 13 14 14 16 17 16 13 16 17 17 17 16 16 15 13 9 6 5 6 6 6 4 3 3 3 2 1 0 0
6 6 6 7 10 13 15 15 15 14 13 12 10 11 11 12 12 13 13 11 11 13 15 17 19 18 17 16 15 11 8 8 9 9 9 7 6 6 3 1 0 0 1
8 9 9 9 10 12 12 11 10 10 11 12 11 10 10 9 9 10 9 8 7 7 9 13 16 16 15 15 14 11 9 9 10 10 9 8 8 7 4 2 1 1 1
9 10 11 10 10 9 8 7 6 7 10 10 9 9 8 7 7 9 7 6 5 3 4 8 11 10 10 11 11 9 8 8 9 9 8 7 6 6 4 3 2 2 2
10 11 12 11 10 7 5 4 4 6 7 7 6 5 5 4 5 6 5 5 4 3 3 5 7 7 6 7 7 6 6 6 7 8 7 5 5 5 4 3 2 2 2
12 13 13 12 10 8 5 4 4 4 4 4 3 2 2 1 2 2 3 3 3 3 3 4 5 5 5 6 6 5 4 4 5 6 5 4 5 6 6 4 2 1 1
14 14 14 12 10 8 6 5 4 2 1 1 1 1 1 1 1 1 1 2 3 2 1 2 3 4 4 5 5 5 5 4 2 3 3 3 4 6 7 5 3 1 1
15 14 12 9 6 5 4 4 4 2 0 0 1 2 2 2 2 1 1 2 2 1 0 1 2 3 2 3 5 5 5 4 1 1 1 2 3 4 5 4 3 3 2
14 13 9 5 2 1 1 3 3 2 1 0 1 2 3 3 2 1 0 1 1 0 0 1 2 1 1 2 3 4 4 3 1 0 0 1 1 2 3 3 4 4 4
13 11 7 2 0 0 1 2 2 2 1 0 1 2 2 2 1 0 0 0 0 0 0 1 1 0 0 1 2 3 3 1 0 0 0 0 0 1 2 3 3 3 4
10 8 4 1 0 0 0 1 1 1 0 0 0 1 1 1 0 0 0 0 0 0 0 0 0 0 0 1 2 3 2 1 0 0 0 0 0 0 1 2 2 1 1
6 4 2 0 0 0 0 0 0 0 0 0 0 0 0 0 0 0 0 0 0 0 0 0 0 0 0 1 2 2 1 0 0 0 0 0 0 0 0 1 1 0 0
3 2 0 0 0 0 0 0 0 0 0 0 0 0 0 0 0 0 0 0 0 0 0 0 0 0 0 0 1 1 0 0 0 0 0 0 0 0 0 0 0 0 0
2 1 0 0 0 0 0 0 0 0 0 0 0 0 0 0 0 0 0 0 0 0 0 0 0 0 0 0 0 0 0 0 0 0 0 0 0 0 0 0 0 0 0
1 0 0 0 0 0 0 0 0 0 0 0 0 0 0 0 0 0 0 0 0 0 0 0 0 0 0 0 0 0 0 0 0 0 0 0 0 0 0 0 0 0 0
0 0 0 0 0 0 0 0 0 0 0 0 0 0 0 0 0 0 0 0 0 0 0 0 0 0 0 0 0 0 0 0 0 0 0 0 0 0 0 0 0 0 0
0 0 0 0 0 0 0 0 0 0 0 0 0 0 0 0 0 0 0 0 0 0 0 0 0 0 0 0 0 0 0 0 0 0 0 0 0 0 0 0 0 0 0
0 0 0 0 0 0 0 0 0 0 0 0 0 0 0 0 0 0 0 0 0 0 0 0 0 0 0 0 0 0 0 0 0 0 0 0 0 0 0 0 0 0 0
0 0 0 0 0 0 0 0 0 0 0 0 0 0 0 0 0 0 0 0 0 0 0 0 0 0 0 0 0 0 0 0 0 0 0 0 0 0 0 0 0 0 0
0 0 0 0 0 0 0 0 0 0 0 0 0 0 0 0 0 0 0 0 0 0 0 0 0 0 0 0 0 0 0 0 0 0 0 0 0 0 0 0 0 0 0
0 0 0 0 0 0 0 0 0 0 0 0 0 0 0 0 0 0 0 0 0 0 0 0 0 0 0 0 0 0 0 0 0 0 0 0 0 0 0 0 0 0 0
0 0 0 0 0 0 0 0 0 0 0 0 0 0 0 0 0 0 0 0 0 0 0 0 0 0 0 0 0 0 0 0 0 0 0 0 0 0 0 0 0 0 0
0 0 0 0 0 0 0 0 0 0 0 0 0 0 0 0 0 0 0 0 0 0 0 0 0 0 0 0 0 0 0 0 0 0 0 0 0 0 0 0 0 0 0
0 0 0 0 0 0 0 0 0 0 0 0 0 0 0 0 0 0 0 0 0 0 0 0 0 0 0 0 0 0 0 0 0 0 0 0 0 0 0 0 0 0 0
0 0 0 0 0 0 0 0 0 0 0 0 0 0 0 0 0 0 0 0 0 0 0 0 0 0 0 0 0 0 0 0 0 0 0 0 0 0 0 0 0 0 0
Wind_Speed
7 7 6 6 6 6 5 4 4 3 1 1 1 1 2 1 1 1 2 2 2 1 2 2 2 3 3 3 3 3 4 3 3 4 4 4 4 4 3 3 3 3 3
7 6 6 6 6 6 5 5 4 4 2 2 1 1 1 1 2 2 2 2 2 2 2 2 2 2 2 3 3 3 3 3 3 3 3 4 4 4 4 3 2 2 2
8 8 6 6 6 6 5 5 5 5 4 3 2 2 2 1 1 1 1 3 3 2 3 2 2 2 3 2 2 3 4 4 3 4 4 4 3 1 3 2 2 1 1
9 9 8 7 6 6 5 6 6 5 4 3 3 2 1 1 1 1 2 2 3 3 3 3 3 3 2 2 3 3 4 4 4 4 5 5 4 3 2 3 2 1 0
10 9 8 8 6 6 5 6 6 6 5 4 4 2 2 1 1 1 1 1 1 2 3 3 3 2 2 2 3 3 4 4 5 4 4 5 4 6 5 3 2 2 1
11 10 9 8 7 6 6 6 6 6 6 5 5 4 3 2 2 2 2 2 1 2 3 3 3 3 3 2 3 4 4 4 5 5 5 5 4 5 5 4 3 2 1
11 10 9 8 7 6 6 6 6 6 6 6 5 4 4 2 2 2 2 2 2 2 3 4 3 3 3 3 3 3 3 4 5 5 5 5 5 4 4 4 3 2 1
10 10 9 8 7 7 6 6 6 6 6 5 5 5 4 3 3 4 3 2 2 3 3 4 3 3 3 3 3 3 3 3 3 4 4 4 4 4 4 4 3 3 2
10 10 9 8 7 7 6 6 5 5 5 5 4 4 5 4 4 3 3 3 3 3 3 3 3 3 2 2 2 1 2 2 2 3 3 4 3 4 4 4 4 4 4
10 9 8 7 7 6 6 5 5 4 4 4 4 4 4 4 4 3 4 3 3 3 3 3 2 2 1 1 1 1 0 1 1 1 2 3 3 3 3 4 3 3 3
11 10 8 7 7 6 5 5 4 3 4 4 4 4 4 4 4 3 3 3 3 3 3 2 2 2 2 2 1 1 1 1 1 1 1 2 2 2 2 2 2 3 3
10 10 8 8 6 6 5 4 3 4 4 4 4 4 4 4 4 4 4 3 3 3 3 2 2 2 2 2 2 2 2 2 2 1 1 1 1 1 1 2 3 3 4
10 9 8 7 6 5 4 4 4 4 3 3 3 4 4 4 4 4 4 3 3 4 3 3 3 3 3 3 3 3 3 3 3 2 2 2 1 1 2 3 4 4 5
10 9 7 6 5 4 4 3 4 4 3 3 3 4 4 4 4 4 4 4 4 4 4 4 4 4 4 3 4 4 4 4 4 4 4 3 2 2 4 4 6 6 7
10 8 7 6 5 4 4 3 4 3 3 3 4 4 4 4 4 4 4 4 4 4 4 4 4 5 4 5 4 4 4 5 5 6 6 6 7 6 5 5 7 8 8
9 9 7 6 5 4 3 3 3 3 3 3 4 4 4 4 4 4 4 4 5 5 5 5 6 7 6 7 7 4 4 5 6 7 7 7 9 11 11 11 10 8 8
9 8 7 6 5 4 3 3 3 3 3 4 4 4 4 5 4 4 4 5 5 6 6 6 7 8 8 8 7 6 5 6 7 7 6 7 8 9 11 12 12 11 9
9 8 7 6 5 4 4 3 3 3 3 3 4 4 4 4 4 5 5 5 5 6 6 6 7 8 9 9 7 5 7 8 9 8 8 8 9 9 9 11 11 10 8
8 8 7 6 5 4 4 3 3 3 3 4 4 4 4 4 4 5 5 5 5 6 6 6 7 8 8 10 9 5 7 8 10 9 9 9 10 8 6 10 11 10 8
8 8 7 6 5 4 4 3 3 3 4 4 4 4 3 4 5 5 4 4 5 6 6 7 7 7 8 10 10 6 6 8 8 8 9 12 10 8 5 8 9 10 9
9 8 7 6 5 5 4 4 4 4 4 3 4 4 4 4 5 5 4 4 5 6 7 7 7 7 8 9 11 11 5 6 7 7 7 8 9 9 8 6 8 7 6
9 8 7 6 5 5 5 5 5 4 3 4 4 4 4 4 4 4 4 4 4 6 6 6 6 6 6 8 9 11 10 7 7 7 7 7 8 9 9 8 6 2 1
8 7 7 7 6 5 4 6 5 4 4 4 5 5 5 4 4 4 4 4 3 4 4 5 5 5 5 6 7 8 8 8 6 7 9 7 6 7 8 6 1 1 3
8 7 7 7 6 5 5 5 5 4 4 5 5 4 5 5 5 2 3 3 3 3 4 4 5 4 4 5 4 4 5 6 6 6 6 4 3 4 5 4 2 2 4
7 6 6 7 7 6 5 5 5 4 5 5 5 5 5 5 4 5 5 4 6 5 4 3 3 3 4 6 8 5 4 3 4 2 4 4 5 5 4 3 3 3 3
7 7 7 7 7 7 6 5 4 4 5 5 4 4 4 4 4 5 6 8 6 6 6 7 5 6 7 4 5 5 5 4 4 2 3 3 3 3 3 3 3 2 2
Wind_Direction
125 122 119 116 114 107 105 101 91 86 90 138 165 149 136 129 86 53 35 16 357 335 290 282 253 261 260 256 251 250 242 242 237 252 253 241 235 239 245 246 249 246 251
141 128 124 120 114 104 98 98 93 84 73 74 88 96 95 83 76 47 48 16 358 343 291 298 292 279 269 253 249 245 250 242 233 253 264 249 221 208 223 224 222 239 250
151 139 132 123 113 101 92 83 72 71 64 68 96 113 127 138 107 57 53 18 349 348 341 316 310 292 274 271 262 255 252 255 241 238 253 264 260 212 181 197 217 229 246
150 143 137 123 107 99 94 87 75 66 58 57 55 61 58 68 32 4 32 17 9 3 352 331 316 299 294 289 273 263 257 255 251 241 243 258 283 270 235 189 186 174 221
150 143 132 117 104 97 91 87 79 64 55 52 54 48 51 51 42 7 26 349 34 12 357 343 330 316 314 312 290 271 256 250 251 247 246 245 244 248 256 250 211 181 152
147 137 126 117 108 100 92 86 82 67 54 47 42 35 33 23 18 6 357 341 359 5 14 357 352 337 332 308 286 272 258 258 256 255 250 247 242 236 236 243 241 223 139
147 142 137 128 117 104 91 84 79 69 57 51 45 37 27 19 23 1 3 342 346 355 5 349 338 335 316 299 290 272 274 262 254 251 253 251 252 257 247 241 236 224 160
147 144 138 128 119 105 91 81 75 69 59 52 46 39 29 21 28 16 351 346 343 359 354 335 328 322 313 306 301 283 277 272 263 257 255 254 247 241 238 238 221 204 188
146 140 135 127 116 104 88 76 67 61 52 48 47 45 36 29 25 11 355 9 8 356 351 335 328 329 330 319 296 299 298 286 279 270 259 257 253 245 237 231 227 216 194
142 135 129 122 114 105 95 78 63 56 49 47 41 42 39 34 26 19 20 17 9 1 350 346 337 333 336 330 315 308 6 306 297 285 280 267 261 250 241 230 224 219 197
142 135 130 123 117 107 97 89 74 60 52 47 43 37 36 35 31 27 24 19 11 6 1 356 349 358 19 29 33 34 41 26 354 310 277 274 276 261 240 212 199 187 159
138 133 129 127 121 110 100 91 80 65 53 46 43 42 36 35 31 30 25 20 15 11 12 12 20 27 37 40 45 43 43 43 33 14 1 339 282 250 215 162 155 152 149
134 130 130 127 119 111 105 97 83 72 58 48 46 43 34 36 33 28 24 22 22 24 25 25 35 41 43 49 50 47 48 46 47 41 38 28 42 106 113 124 127 128 126
136 132 130 124 117 113 106 95 79 72 62 51 48 45 37 35 35 34 35 31 31 35 38 39 43 48 48 52 59 65 62 61 60 55 49 48 65 94 113 114 119 120 119
141 138 134 129 125 118 106 91 78 70 65 61 56 49 44 45 42 42 44 42 39 44 52 52 52 49 47 37 42 71 74 72 70 67 64 64 66 61 80 107 119 125 125
146 142 141 138 132 125 113 98 85 68 68 67 61 49 45 51 50 47 49 51 50 48 54 53 51 48 45 27 16 27 79 79 79 80 83 87 85 80 80 82 88 104 124
147 146 143 138 133 125 115 101 87 77 77 70 59 52 53 54 49 45 49 53 55 57 55 54 58 56 46 34 25 20 70 78 76 78 82 86 92 100 103 98 94 85 81
147 144 140 133 128 128 123 108 102 99 92 78 67 62 58 58 58 54 53 52 55 58 59 57 60 62 49 31 26 30 78 78 76 74 77 85 90 90 104 107 103 100 91
136 134 132 131 133 129 129 134 134 114 97 82 73 72 71 70 67 69 61 57 62 65 66 62 61 63 52 27 16 24 87 82 75 71 69 81 89 67 85 106 105 101 97
128 130 130 129 127 130 141 144 129 110 96 85 83 81 84 81 74 72 66 68 69 69 70 64 58 59 53 29 17 11 89 89 87 82 77 64 69 57 58 106 110 109 109
130 133 132 129 130 138 141 133 121 103 95 96 94 84 84 88 87 82 76 78 81 80 76 72 65 60 53 47 31 20 60 84 91 89 84 73 59 59 52 73 91 97 114
135 136 133 126 127 131 132 123 108 104 109 109 101 93 90 90 96 95 89 86 89 93 88 85 80 73 63 52 45 37 34 35 84 85 88 85 75 70 64 75 77 73 147
138 139 135 130 128 132 135 123 116 116 111 105 97 96 96 91 95 103 107 106 100 95 97 95 86 83 86 81 67 58 51 43 68 76 76 91 111 114 100 94 85 221 129
141 143 139 133 131 131 126 121 121 123 121 112 107 103 102 99 90 83 90 93 92 94 97 91 91 92 97 91 93 104 110 116 112 112 118 123 90 97 101 134 153 103 67
138 140 136 131 130 132 132 127 128 132 123 115 113 110 108 101 97 78 47 46 59 40 35 64 86 90 85 51 21 9 46 58 78 121 145 142 137 134 126 116 105 117 134
141 141 138 137 137 139 136 134 133 134 130 124 121 118 120 122 122 117 105 60 54 59 49 29 24 68 66 53 37 35 26 16 343 293 136 129 125 120 119 126 134 139 122